GAOFEN-8

Last updated on Fri Sep 11 2026 00:02:44 GMT+0000 (Coordinated Universal Time)

1 40701U 15030A 26253.64071396 .00013955 00000+0 26100-3 0 9999 2 40701 97.6856 92.3230 0006801 241.3344 118.7222 15.48826153624660
UTC large
Height (km)
Speed (km/s)
/
Latitude / Longitude
Inclination (degrees)
Orbital Period (minutes)
Azimuth
Elevation
Range (km)
Doppler Factor

Next 0 passes for location: London (51.5072 / 0.1276)

No passes found over London.
GAOFEN-8